Flag for Gaza Strip Weather past 2 weeks in Khan Yunis, Gaza Strip

Now
73 °F

Clear.


Feels Like: 68 °F
Forecast: 78 / 89 °F
Wind: No wind

Location: El Arish

Current Time: Sep 2, 2015 at 5:32:57 AM

Latest Report: Sep 2, 2015 at 5:00 AM


Visibility: 10 mi

Pressure: 29.83 "Hg

Humidity: 100%

Dew point: 73 °F

Location of Khan YunisLocation

Historic Weather in Khan Yunis — Graph

°F

Khan Yunis temperature yesterday

Maximum temperature yesterday: 86 °F (at 10:00 AM)
Minimum temperature yesterday: 75 °F (at 12:00 AM)
Average temperature yesterday: 78 °F

Past Weeks' High & Low Weather Summary

 TemperatureHumidityPressure
High95 °F (Aug 20, 2:00 PM)100% (Aug 18, 6:00 AM)29.92 "Hg (Aug 18, 6:00 AM)
Low72 °F (Aug 20, 6:00 AM)34% (Aug 25, 1:00 PM)29.71 "Hg (Aug 23, 6:00 PM)
Average83 °F75%29.82 "Hg
* Reported Aug 18 4:00 AM — Sep 2 4:00 AM, Khan Yunis, Weather by CustomWeather, © 2015

Note: Actual official high and low records may vary slightly from our data, if they occured in-between our weather recording intervals... More about our weather records

Advertising

Khan Yunis weather history for previous 24 hours

 ConditionsComfort  
Time TempWeatherWind HumidityBarometerVisibility
4:00 AM
Wed, Sep 2
73 °FClear.No wind100%29.83 "Hg10 mi
3:00 AM75 °FClear.No wind100%29.86 "Hg10 mi
2:00 AM75 °FClear.No wind100%29.86 "Hg10 mi
1:00 AM75 °FClear.No wind100%29.86 "Hg10 mi
12:00 AM77 °FClear.No wind100%29.86 "Hg10 mi
11:00 PM
Tue, Sep 1
77 °FClear.No wind94%29.86 "Hg10 mi
10:00 PM81 °FClear.No wind89%29.86 "Hg10 mi
9:00 PM81 °FClear.No wind89%29.86 "Hg10 mi
8:00 PM82 °FClear.3 mph79%29.83 "Hg10 mi
7:00 PM84 °FSunny.7 mph79%29.83 "Hg10 mi
10:00 AM86 °FScattered clouds.3 mph66%29.89 "HgN/A
9:00 AM82 °FSunny.7 mph74%29.89 "Hg10 mi
8:00 AM79 °FSunny.5 mph84%29.86 "Hg10 mi
7:00 AM75 °FSunny.2 mph94%29.86 "Hg10 mi
6:00 AM75 °FClear.2 mph100%29.83 "Hg10 mi
5:00 AM75 °FClear.No wind100%29.83 "Hg10 mi
Weather by CustomWeather, © 2015

See weather overviewHow to use our weather pages